SKW332 KSAN-KDEN

Flight info

Callsign SKW332
Flight time N/A
Altitude 33000
Route ZZOOO4 MTBAL EED J236 TBC CRUDD TBARR4
Aircraft E75L/M-SDE3GILORVW/S

Departure

Time 2026-04-25 22:42
Airport San Diego International Airport (KSAN)

Arrival

Time N/A
Airport Denver International Airport (KDEN)
Time Latitude Longitude Altitude Speed Heading
2026-04-25 22:03 32.73347 -117.20055 20 ft 0 kts 261°
2026-04-25 22:22 32.73347 -117.20056 20 ft 0 kts 261°
2026-04-25 22:22 32.73346 -117.20059 20 ft 0 kts 261°
2026-04-25 22:23 32.73346 -117.20058 20 ft 1 kts 261°
2026-04-25 22:23 32.73348 -117.20040 22 ft 3 kts 264°
2026-04-25 22:23 32.73349 -117.20016 22 ft 3 kts 274°
2026-04-25 22:24 32.73345 -117.19994 20 ft 3 kts 306°
2026-04-25 22:24 32.73334 -117.19986 20 ft 1 kts
2026-04-25 22:24 32.73333 -117.19987 20 ft 0 kts
2026-04-25 22:33 32.73342 -117.19985 20 ft 2 kts
2026-04-25 22:33 32.73366 -117.19979 20 ft 5 kts 11°
2026-04-25 22:34 32.73405 -117.19969 20 ft 7 kts 13°
2026-04-25 22:34 32.73459 -117.19953 20 ft 9 kts 24°
2026-04-25 22:34 32.73477 -117.19890 21 ft 9 kts 108°
2026-04-25 22:34 32.73457 -117.19810 23 ft 11 kts 107°
2026-04-25 22:35 32.73433 -117.19709 23 ft 14 kts 106°
2026-04-25 22:35 32.73402 -117.19581 23 ft 18 kts 106°
2026-04-25 22:35 32.73364 -117.19427 20 ft 21 kts 106°
2026-04-25 22:35 32.73321 -117.19249 20 ft 24 kts 105°
2026-04-25 22:36 32.73272 -117.19050 22 ft 26 kts 106°
2026-04-25 22:36 32.73224 -117.18849 22 ft 26 kts 105°
2026-04-25 22:36 32.73172 -117.18634 20 ft 29 kts 107°
2026-04-25 22:36 32.73114 -117.18397 22 ft 31 kts 108°
2026-04-25 22:37 32.73057 -117.18162 20 ft 30 kts 105°
2026-04-25 22:37 32.73009 -117.17964 20 ft 17 kts 104°
2026-04-25 22:37 32.72979 -117.17842 21 ft 14 kts 108°
2026-04-25 22:37 32.72957 -117.17760 20 ft 4 kts 108°
2026-04-25 22:38 32.72950 -117.17723 20 ft 6 kts 93°
2026-04-25 22:38 32.72957 -117.17670 20 ft 0 kts 73°
2026-04-25 22:40 32.72957 -117.17669 20 ft 1 kts 73°
2026-04-25 22:40 32.72964 -117.17646 21 ft 5 kts 64°
2026-04-25 22:40 32.72993 -117.17612 22 ft 7 kts 19°
2026-04-25 22:40 32.73037 -117.17647 20 ft 6 kts 285°
2026-04-25 22:41 32.73037 -117.17648 20 ft 0 kts 285°
2026-04-25 22:41 32.73045 -117.17684 20 ft 22 kts 285°
2026-04-25 22:42 32.73163 -117.18174 21 ft 99 kts 285°
2026-04-25 22:42 32.73424 -117.19221 52 ft 161 kts 285°
2026-04-25 22:42 32.73645 -117.20133 448 ft 175 kts 284°
2026-04-25 22:42 32.73937 -117.21573 1435 ft 178 kts 276°
2026-04-25 22:43 32.73653 -117.22938 2564 ft 171 kts 227°
2026-04-25 22:43 32.72586 -117.23440 3606 ft 172 kts 175°
2026-04-25 22:43 32.71394 -117.23020 4313 ft 188 kts 169°
2026-04-25 22:43 32.70099 -117.23177 5062 ft 192 kts 210°
2026-04-25 22:44 32.69183 -117.24346 5743 ft 206 kts 249°
2026-04-25 22:44 32.69043 -117.26069 6576 ft 217 kts 274°
2026-04-25 22:44 32.69244 -117.27862 7611 ft 221 kts 277°
2026-04-25 22:44 32.69507 -117.29642 8670 ft 223 kts 278°
2026-04-25 22:45 32.69811 -117.31478 9798 ft 224 kts 277°
2026-04-25 22:45 32.69713 -117.33351 10436 ft 240 kts 246°
2026-04-25 22:45 32.68593 -117.34918 10777 ft 277 kts 215°
2026-04-25 22:45 32.66634 -117.35736 10966 ft 323 kts 195°
2026-04-25 22:46 32.64268 -117.36204 11062 ft 367 kts 192°
2026-04-25 22:46 32.61635 -117.36423 11060 ft 380 kts 179°
2026-04-25 22:46 32.59190 -117.35540 11000 ft 361 kts 154°
2026-04-25 22:46 32.57373 -117.33612 10963 ft 346 kts 128°
2026-04-25 22:47 32.56479 -117.31052 10967 ft 331 kts 101°
2026-04-25 22:47 32.56624 -117.28402 10998 ft 323 kts 71°
2026-04-25 22:47 32.57744 -117.26126 11030 ft 321 kts 45°
2026-04-25 22:47 32.59326 -117.24262 11024 ft 321 kts 45°
2026-04-25 22:48 32.60509 -117.22021 10995 ft 324 kts 70°
2026-04-25 22:48 32.61087 -117.19431 11330 ft 325 kts 78°
2026-04-25 22:48 32.61559 -117.16797 12008 ft 329 kts 78°
2026-04-25 22:48 32.62047 -117.14115 12635 ft 335 kts 78°
2026-04-25 22:49 32.62558 -117.11399 13261 ft 340 kts 77°
2026-04-25 22:49 32.63135 -117.08653 13866 ft 345 kts 73°
2026-04-25 22:49 32.63866 -117.05921 14406 ft 350 kts 72°
2026-04-25 22:49 32.64622 -117.03160 14945 ft 353 kts 71°
2026-04-25 22:50 32.65388 -117.00375 15499 ft 358 kts 71°
2026-04-25 22:50 32.66134 -116.97538 16033 ft 363 kts 76°
2026-04-25 22:50 32.66588 -116.94524 16146 ft 381 kts 88°
2026-04-25 22:50 32.66730 -116.91320 16303 ft 397 kts 89°
2026-04-25 22:51 32.66823 -116.87987 16501 ft 410 kts 90°
2026-04-25 22:51 32.66907 -116.84577 16906 ft 417 kts 90°
2026-04-25 22:51 32.66985 -116.81163 17397 ft 421 kts 90°
2026-04-25 22:51 32.67297 -116.77696 17869 ft 427 kts 75°
2026-04-25 22:52 32.68514 -116.74497 18348 ft 428 kts 53°
2026-04-25 22:52 32.70543 -116.71966 18789 ft 422 kts 31°
2026-04-25 22:52 32.73121 -116.70412 19243 ft 412 kts 12°
2026-04-25 22:52 32.74976 -116.69779 19558 ft 411 kts
2026-04-25 22:53 32.78659 -116.68670 20154 ft 414 kts
2026-04-25 22:53 32.81461 -116.67799 20603 ft 418 kts
2026-04-25 22:53 32.84265 -116.66844 21032 ft 424 kts 13°
2026-04-25 22:53 32.87032 -116.65556 21468 ft 428 kts 15°
2026-04-25 22:54 32.89842 -116.64208 21894 ft 432 kts 17°
2026-04-25 22:54 32.92626 -116.62841 22323 ft 434 kts 17°
2026-04-25 22:54 32.95432 -116.61459 22753 ft 437 kts 17°
2026-04-25 22:54 32.98254 -116.60098 23162 ft 439 kts 15°
2026-04-25 22:55 33.01046 -116.58686 23553 ft 443 kts 17°
2026-04-25 22:55 33.03882 -116.57216 23859 ft 446 kts 17°
2026-04-25 22:55 33.06730 -116.55727 24190 ft 448 kts 17°
2026-04-25 22:55 33.09588 -116.54235 24491 ft 450 kts 17°
2026-04-25 22:56 33.12469 -116.52727 24768 ft 453 kts 17°
2026-04-25 22:56 33.15361 -116.51213 25076 ft 455 kts 17°
2026-04-25 22:56 33.18266 -116.49691 25372 ft 457 kts 17°
2026-04-25 22:56 33.21186 -116.48162 25655 ft 459 kts 17°
2026-04-25 22:57 33.24116 -116.46626 25941 ft 462 kts 17°
2026-04-25 22:57 33.27062 -116.45079 26230 ft 464 kts 17°
2026-04-25 22:57 33.30030 -116.43523 26453 ft 467 kts 17°
2026-04-25 22:57 33.33007 -116.41956 26726 ft 468 kts 17°
2026-04-25 22:58 33.35994 -116.40385 27008 ft 470 kts 17°
2026-04-25 22:58 33.38856 -116.38394 27205 ft 486 kts 33°
2026-04-25 22:58 33.41344 -116.35604 27490 ft 493 kts 43°
2026-04-25 22:58 33.43469 -116.32344 27715 ft 500 kts 50°
2026-04-25 22:59 33.45533 -116.28988 27978 ft 502 kts 51°
2026-04-25 22:59 33.47574 -116.25585 28159 ft 504 kts 50°
2026-04-25 22:59 33.49621 -116.22172 28387 ft 505 kts 51°
2026-04-25 22:59 33.51646 -116.18787 28618 ft 507 kts 51°
2026-04-25 23:00 33.53732 -116.15294 28850 ft 509 kts 51°
2026-04-25 23:00 33.55778 -116.11870 28905 ft 515 kts 51°
2026-04-25 23:00 33.60032 -116.04833 28996 ft 525 kts 48°
2026-04-25 23:01 33.62452 -116.01492 29222 ft 524 kts 45°
2026-04-25 23:01 33.64846 -115.98271 29506 ft 523 kts 44°
2026-04-25 23:01 33.67290 -115.95033 29759 ft 524 kts 44°
2026-04-25 23:01 33.69734 -115.91799 30030 ft 523 kts 44°
2026-04-25 23:02 33.72177 -115.88564 30283 ft 523 kts 44°
2026-04-25 23:02 33.74621 -115.85328 30496 ft 523 kts 44°
2026-04-25 23:02 33.77063 -115.82087 30733 ft 523 kts 43°
2026-04-25 23:02 33.79500 -115.78851 30955 ft 522 kts 43°
2026-04-25 23:03 33.81937 -115.75614 31189 ft 522 kts 43°
2026-04-25 23:03 33.84371 -115.72376 31402 ft 522 kts 43°
2026-04-25 23:03 33.86802 -115.69136 31614 ft 522 kts 43°
2026-04-25 23:03 33.89231 -115.65900 31993 ft 517 kts 43°
2026-04-25 23:04 33.91582 -115.62757 32425 ft 495 kts 43°
2026-04-25 23:04 33.93109 -115.60725 32565 ft 495 kts 43°
2026-04-25 23:04 33.96204 -115.56593 32678 ft 497 kts 43°
2026-04-25 23:04 33.98524 -115.53503 32731 ft 498 kts 43°
2026-04-25 23:05 34.03164 -115.47280 32763 ft 499 kts 43°
2026-04-25 23:05 34.07805 -115.41046 32762 ft 500 kts 43°
2026-04-25 23:06 34.12452 -115.34798 32753 ft 500 kts 43°
2026-04-25 23:06 34.17106 -115.28530 32753 ft 501 kts 43°
2026-04-25 23:07 34.21761 -115.22251 32757 ft 501 kts 43°
2026-04-25 23:07 34.26424 -115.15949 32745 ft 504 kts 43°
2026-04-25 23:08 34.31100 -115.09618 32742 ft 505 kts 43°
2026-04-25 23:08 34.35751 -115.03310 32733 ft 506 kts 43°
2026-04-25 23:09 34.40470 -114.96898 32736 ft 507 kts 43°
2026-04-25 23:09 34.45129 -114.90556 32733 ft 507 kts 43°
2026-04-25 23:10 34.49815 -114.84166 32728 ft 507 kts 43°
2026-04-25 23:10 34.54500 -114.77765 32734 ft 508 kts 43°
2026-04-25 23:11 34.59184 -114.71354 32752 ft 508 kts 43°
2026-04-25 23:11 34.63868 -114.64930 32768 ft 508 kts 43°
2026-04-25 23:12 34.68545 -114.58504 32773 ft 508 kts 43°
2026-04-25 23:12 34.73224 -114.52065 32760 ft 508 kts 43°
2026-04-25 23:13 34.77503 -114.45170 32746 ft 515 kts 57°
2026-04-25 23:13 34.80979 -114.37523 32750 ft 516 kts 59°
2026-04-25 23:14 34.84380 -114.29831 32736 ft 516 kts 59°
2026-04-25 23:14 34.87776 -114.22119 32732 ft 517 kts 59°
2026-04-25 23:15 34.91167 -114.14403 32724 ft 517 kts 59°
2026-04-25 23:15 34.94559 -114.06668 32746 ft 517 kts 59°
2026-04-25 23:16 34.97943 -113.98934 32781 ft 517 kts 59°
2026-04-25 23:16 35.01328 -113.91184 32795 ft 518 kts 59°
2026-04-25 23:17 35.04708 -113.83422 32784 ft 518 kts 59°
2026-04-25 23:17 35.08087 -113.75649 32783 ft 518 kts 59°
2026-04-25 23:18 35.11463 -113.67866 32776 ft 518 kts 59°
2026-04-25 23:18 35.14832 -113.60078 32773 ft 519 kts 59°
2026-04-25 23:19 35.18199 -113.52281 32748 ft 519 kts 59°
2026-04-25 23:19 35.21558 -113.44479 32762 ft 518 kts 59°
2026-04-25 23:20 35.24913 -113.36669 32769 ft 518 kts 59°
2026-04-25 23:20 35.28260 -113.28865 32776 ft 518 kts 59°
2026-04-25 23:21 35.31605 -113.21042 32787 ft 518 kts 59°
2026-04-25 23:21 35.34944 -113.13216 32795 ft 518 kts 59°
2026-04-25 23:22 35.38277 -113.05387 32804 ft 518 kts 59°
2026-04-25 23:23 35.43267 -112.93631 32816 ft 518 kts 59°
2026-04-25 23:23 35.46586 -112.85788 32826 ft 518 kts 60°
2026-04-25 23:24 35.49875 -112.77995 32836 ft 518 kts 60°
2026-04-25 23:24 35.53184 -112.70142 32836 ft 518 kts 60°
2026-04-25 23:25 35.56486 -112.62283 32838 ft 518 kts 60°
2026-04-25 23:25 35.59783 -112.54418 32855 ft 518 kts 60°
2026-04-25 23:26 35.63072 -112.46555 32862 ft 518 kts 60°
2026-04-25 23:26 35.66358 -112.38679 32876 ft 518 kts 60°
2026-04-25 23:27 35.69635 -112.30806 32905 ft 517 kts 60°
2026-04-25 23:27 35.72912 -112.22913 32927 ft 517 kts 60°
2026-04-25 23:28 35.76182 -112.15020 32944 ft 518 kts 60°
2026-04-25 23:28 35.78895 -112.08456 32953 ft 517 kts 60°
2026-04-25 23:29 35.82153 -112.00556 32942 ft 517 kts 60°
2026-04-25 23:29 35.85405 -111.92651 32923 ft 517 kts 60°
2026-04-25 23:30 35.88649 -111.84748 32889 ft 516 kts 60°
2026-04-25 23:30 35.91875 -111.76897 32812 ft 501 kts 63°
2026-04-25 23:31 35.95009 -111.69196 32778 ft 504 kts 63°
2026-04-25 23:31 35.96975 -111.64333 32765 ft 504 kts 63°
2026-04-25 23:32 36.00134 -111.56588 32758 ft 505 kts 63°
2026-04-25 23:32 36.03289 -111.48831 32758 ft 506 kts 63°
2026-04-25 23:33 36.06440 -111.41058 32748 ft 506 kts 63°
2026-04-25 23:33 36.09585 -111.33275 32745 ft 506 kts 63°
2026-04-25 23:34 36.12794 -111.25539 32747 ft 506 kts 60°
2026-04-25 23:34 36.16220 -111.17935 32747 ft 506 kts 59°
2026-04-25 23:35 36.19666 -111.10351 32744 ft 505 kts 59°
2026-04-25 23:35 36.23103 -111.02766 32740 ft 505 kts 59°
2026-04-25 23:36 36.26529 -110.95180 32734 ft 505 kts 60°
2026-04-25 23:36 36.29952 -110.87582 32729 ft 505 kts 60°
2026-04-25 23:37 36.33368 -110.79981 32729 ft 505 kts 60°
2026-04-25 23:37 36.36781 -110.72370 32718 ft 504 kts 60°
2026-04-25 23:38 36.40186 -110.64757 32713 ft 504 kts 60°
2026-04-25 23:38 36.43586 -110.57140 32712 ft 504 kts 60°
2026-04-25 23:39 36.46975 -110.49529 32707 ft 504 kts 60°
2026-04-25 23:39 36.50361 -110.41909 32705 ft 503 kts 60°
2026-04-25 23:40 36.53736 -110.34292 32701 ft 503 kts 60°
2026-04-25 23:40 36.57107 -110.26670 32696 ft 503 kts 60°
2026-04-25 23:41 36.60453 -110.19085 32689 ft 503 kts 60°
2026-04-25 23:41 36.63837 -110.11397 32685 ft 503 kts 60°
2026-04-25 23:42 36.67195 -110.03750 32675 ft 503 kts 60°
2026-04-25 23:42 36.70525 -109.96150 32669 ft 503 kts 61°
2026-04-25 23:43 36.73870 -109.88497 32671 ft 503 kts 61°
2026-04-25 23:43 36.77216 -109.80824 32659 ft 503 kts 61°
2026-04-25 23:44 36.80552 -109.73155 32655 ft 503 kts 61°
2026-04-25 23:44 36.83886 -109.65475 32658 ft 503 kts 61°
2026-04-25 23:45 36.87216 -109.57786 32657 ft 503 kts 61°
2026-04-25 23:45 36.90538 -109.50094 32663 ft 503 kts 61°
2026-04-25 23:46 36.93856 -109.42395 32663 ft 503 kts 61°
2026-04-25 23:46 36.97169 -109.34689 32659 ft 503 kts 61°
2026-04-25 23:47 37.00481 -109.26967 32662 ft 504 kts 61°
2026-04-25 23:47 37.03789 -109.19238 32663 ft 504 kts 61°
2026-04-25 23:48 37.07092 -109.11500 32668 ft 504 kts 61°
2026-04-25 23:48 37.10392 -109.03752 32671 ft 504 kts 61°
2026-04-25 23:49 37.13692 -108.95985 32715 ft 505 kts 61°
2026-04-25 23:49 37.16968 -108.88256 32780 ft 506 kts 62°
2026-04-25 23:50 37.20285 -108.80409 32833 ft 506 kts 62°
2026-04-25 23:50 37.23581 -108.72595 32876 ft 507 kts 62°
2026-04-25 23:51 37.26876 -108.64766 32884 ft 508 kts 62°
2026-04-25 23:51 37.30149 -108.56966 32885 ft 508 kts 62°
2026-04-25 23:52 37.33440 -108.49106 32869 ft 509 kts 62°
2026-04-25 23:52 37.36731 -108.41229 32839 ft 509 kts 62°
2026-04-25 23:53 37.40016 -108.33342 32810 ft 509 kts 62°
2026-04-25 23:53 37.43300 -108.25442 32791 ft 510 kts 62°
2026-04-25 23:54 37.46583 -108.17524 32780 ft 510 kts 61°
2026-04-25 23:54 37.49863 -108.09593 32779 ft 511 kts 62°
2026-04-25 23:55 37.53138 -108.01652 32797 ft 511 kts 62°
2026-04-25 23:55 37.56408 -107.93705 32798 ft 510 kts 62°
2026-04-25 23:56 37.59675 -107.85746 32808 ft 511 kts 62°
2026-04-25 23:56 37.62936 -107.77783 32825 ft 511 kts 62°
2026-04-25 23:57 37.66192 -107.69809 32832 ft 511 kts 61°
2026-04-25 23:57 37.69446 -107.61822 32858 ft 512 kts 62°
2026-04-25 23:58 37.72672 -107.53884 32855 ft 513 kts 61°
2026-04-25 23:58 37.76650 -107.46434 32833 ft 507 kts 44°
2026-04-25 23:59 37.81639 -107.40312 32840 ft 502 kts 38°
2026-04-25 23:59 37.86754 -107.34267 32845 ft 503 kts 38°
2026-04-26 00:00 37.91869 -107.28218 32826 ft 503 kts 38°
2026-04-26 00:00 37.96973 -107.22171 32814 ft 502 kts 38°
2026-04-26 00:01 38.02069 -107.16121 32797 ft 501 kts 38°
2026-04-26 00:01 38.07153 -107.10071 32796 ft 501 kts 38°
2026-04-26 00:02 38.12223 -107.04025 32767 ft 501 kts 38°
2026-04-26 00:02 38.22819 -106.88763 32811 ft 504 kts 46°
2026-04-26 00:03 38.40719 -106.61446 32817 ft 500 kts 46°
2026-04-26 00:03 38.58425 -106.34205 32805 ft 496 kts 46°
2026-04-26 00:04 38.76054 -106.07122 32905 ft 494 kts 46°
2026-04-26 00:04 38.91804 -105.82847 32781 ft 495 kts 46°
2026-04-26 00:05 38.96189 -105.76006 32739 ft 496 kts 46°